DW0501 Weather Reports


time (UTC)temp
F
wind
direction
speed
knots
gust
knots
rain 1hr
in
rain 24hr
in
rain mn
in
humidity
%
barometer
mb
20260510142532 69 109 0.0 0.0 0.00 0.00 0.00 61 1011.8
20260510142033 69 285 0.0 0.0 0.00 0.00 0.00 65 1011.8
20260510141536 68 285 0.0 0.0 0.00 0.00 0.00 66 1011.8
20260510141029 68 287 0.0 0.0 0.00 0.00 0.00 70 1011.8
20260510140526 67 288 0.0 0.0 0.00 0.00 0.00 74 1011.9
20260510140029 67 288 0.0 0.0 0.00 0.00 0.00 75 1011.9
20260510135524 66 288 0.0 0.0 0.00 0.00 0.00 78 1011.9
20260510135023 66 264 0.0 0.0 0.00 0.00 0.00 80 1012.0
20260510134522 65 267 0.0 0.0 0.00 0.00 0.00 82 1012.0
20260510134020 65 267 0.0 0.0 0.00 0.00 0.00 84 1012.0
20260510133519 64 78 0.0 0.0 0.00 0.00 0.00 87 1012.0
20260510133030 64 78 0.0 0.0 0.00 0.00 0.00 89 1012.0
20260510132518 63 78 0.0 0.0 0.00 0.00 0.00 90 1012.0
20260510132018 63 78 0.0 0.0 0.00 0.00 0.00 92 1011.9
20260510131516 62 78 0.0 0.0 0.00 0.00 0.00 93 1011.9
20260510131015 62 78 0.0 0.0 0.00 0.00 0.00 94 1011.9
20260510130515 62 71 0.0 0.0 0.00 0.00 0.00 95 1012.1
20260510130016 61 71 0.0 0.0 0.00 0.00 0.00 97 1012.1
20260510125512 60 71 0.0 0.0 0.00 0.00 0.00 97 1012.1
20260510125011 59 71 0.0 0.0 0.00 0.00 0.00 99 1012.3
20260510124509 59 71 0.0 0.0 0.00 0.00 0.00 99 1012.3
20260510124008 58 71 0.0 0.0 0.00 0.00 0.00 100 1012.3
20260510123507 57 71 0.0 0.0 0.00 0.00 0.00 99 1012.2
20260510123008 57 71 0.0 0.0 0.00 0.00 0.00 99 1012.2
20260510122507 57 71 0.0 0.0 0.00 0.00 0.00 99 1012.2
20260510122007 56 71 0.0 0.0 0.00 0.00 0.00 99 1012.2
20260510121506 56 71 0.0 0.0 0.00 0.00 0.00 100 1012.2
20260510121005 55 71 0.0 0.0 0.00 0.00 0.00 99 1012.2
20260510120507 55 71 0.0 0.0 0.00 0.00 0.00 99 1012.0
20260510120009 55 71 0.0 0.0 0.00 0.00 0.00 99 1012.0
20260510115504 55 71 0.0 0.0 0.00 0.00 0.00 99 1012.0
20260510115003 55 71 0.0 0.0 0.00 0.00 0.00 99 1011.9
20260510114503 54 71 0.0 0.0 0.00 0.00 0.00 100 1011.9
20260510114003 54 71 0.0 0.0 0.00 0.00 0.00 100 1011.9
20260510113502 53 72 0.0 0.0 0.00 0.00 0.00 100 1011.5
20260510113001 53 72 0.0 0.0 0.00 0.00 0.00 100 1011.5
20260510112501 53 72 0.0 0.0 0.00 0.00 0.00 99 1011.5
20260510112001 52 72 0.0 0.0 0.00 0.00 0.00 99 1011.4
20260510111502 52 136 0.0 0.0 0.00 0.00 0.00 99 1011.4
20260510111001 51 136 0.0 0.0 0.00 0.00 0.00 99 1011.4
20260510110602 51 136 0.0 0.0 0.00 0.00 0.00 99 1011.4
20260510110100 51 136 0.0 0.0 0.00 0.00 0.00 98 1011.2
20260510105559 51 136 0.0 0.0 0.00 0.00 0.00 98 1011.2
20260510105101 51 136 0.0 0.0 0.00 0.00 0.00 98 1011.2
20260510104602 50 154 0.0 0.0 0.00 0.00 0.00 98 1010.9
20260510104058 50 154 0.0 0.0 0.00 0.00 0.00 98 1010.9
20260510103557 50 154 0.0 0.0 0.00 0.00 0.00 98 1010.5
20260510103102 50 154 0.0 0.0 0.00 0.00 0.00 98 1010.5
20260510102556 50 154 0.0 0.0 0.00 0.00 0.00 97 1010.5
20260510102056 50 154 0.0 0.0 0.00 0.00 0.00 97 1010.4
20260510101555 50 157 0.0 0.0 0.00 0.00 0.00 97 1010.4
20260510101054 50 157 0.0 0.0 0.00 0.00 0.00 97 1010.4
20260510100553 50 157 0.0 0.0 0.00 0.00 0.00 97 1010.5
20260510100055 51 157 0.0 0.0 0.00 0.00 0.00 97 1010.5
20260510095554 51 157 0.0 0.0 0.00 0.00 0.00 97 1010.5
20260510095053 51 157 0.0 0.0 0.00 0.00 0.00 97 1010.4
20260510094554 51 157 0.0 0.0 0.00 0.00 0.00 97 1010.4
20260510094053 51 157 0.0 0.0 0.00 0.00 0.00 97 1010.4
20260510093553 51 157 0.0 0.0 0.00 0.00 0.00 97 1010.4
20260510093104 51 157 0.0 0.0 0.00 0.00 0.00 97 1010.4
20260510092552 51 157 0.0 0.0 0.00 0.00 0.00 97 1010.4
20260510092053 51 157 0.0 0.0 0.00 0.00 0.00 97 1010.3
20260510091555 51 157 0.0 0.0 0.00 0.00 0.00 97 1010.3
20260510091051 51 157 0.0 0.0 0.00 0.00 0.00 97 1010.3
20260510090551 51 157 0.0 0.0 0.00 0.00 0.00 96 1010.2
20260510090052 51 157 0.0 0.0 0.00 0.00 0.00 96 1010.2
20260510085551 51 157 0.0 0.0 0.00 0.00 0.00 96 1010.2
20260510085048 51 157 0.0 0.0 0.00 0.00 0.00 96 1010.2
20260510084552 51 157 0.0 0.0 0.00 0.00 0.00 96 1010.2
20260510084049 51 157 0.0 0.0 0.00 0.00 0.00 96 1010.2
20260510083550 51 157 0.0 0.0 0.00 0.00 0.00 95 1010.0
20260510083051 51 157 0.0 0.0 0.00 0.00 0.00 95 1010.0
20260510082547 51 157 0.0 0.0 0.00 0.00 0.00 95 1010.0
20260510082049 51 157 0.0 0.0 0.00 0.00 0.00 95 1009.9
20260510081609 51 157 0.0 0.0 0.00 0.00 0.00 95 1009.9
20260510081046 51 157 0.0 0.0 0.00 0.00 0.00 95 1009.9
20260510080545 51 157 0.0 0.0 0.00 0.00 0.00 95 1009.4
20260510080045 51 157 0.0 0.0 0.00 0.00 0.00 94 1009.4
20260510075544 51 157 0.0 0.0 0.00 0.00 0.00 94 1009.4
20260510075043 51 157 0.0 0.0 0.00 0.00 0.00 94 1009.3
20260510074543 51 157 0.0 0.0 0.00 0.00 0.00 94 1009.3
20260510074042 51 157 0.0 0.0 0.00 0.00 0.00 94 1009.3
20260510073542 51 157 0.0 0.0 0.00 0.00 0.00 94 1009.2
20260510073053 52 157 0.0 0.0 0.00 0.00 0.00 94 1009.2
20260510072545 52 157 0.0 0.0 0.00 0.00 0.00 94 1009.2
20260510072044 52 157 0.0 0.0 0.00 0.00 0.00 94 1009.2
20260510071540 52 157 0.0 0.0 0.00 0.00 0.00 93 1009.2
20260510071039 52 157 0.0 0.0 0.00 0.00 0.00 93 1009.2
20260510070539 52 157 0.0 0.0 0.00 0.00 0.00 93 1009.2
20260510070039 52 157 0.0 0.0 0.00 0.00 0.00 93 1009.2
20260510065538 52 157 0.0 0.0 0.00 0.00 0.00 93 1009.2
20260510065038 53 157 0.0 0.0 0.00 0.00 0.00 93 1008.9
20260510064551 53 157 0.0 0.0 0.00 0.00 0.00 93 1008.9
20260510064037 53 157 0.0 0.0 0.00 0.00 0.00 93 1008.9
20260510063536 53 157 0.0 0.0 0.00 0.00 0.00 92 1009.0
20260510063042 53 157 0.0 0.0 0.00 0.00 0.00 92 1009.0
20260510062536 53 157 0.0 0.0 0.00 0.00 0.00 92 1009.0
20260510062034 53 157 0.0 0.0 0.00 0.00 0.00 92 1008.9
20260510061536 53 157 0.0 0.0 0.00 0.00 0.00 92 1008.9
20260510061034 54 157 0.0 0.0 0.00 0.00 0.00 92 1008.9
20260510060533 54 157 0.0 0.0 0.00 0.00 0.00 92 1009.0
20260510060042 54 157 0.0 0.0 0.00 0.00 0.00 92 1009.0
20260510055533 54 157 0.0 0.0 0.00 0.00 0.00 92 1009.0
20260510055035 54 157 0.0 0.0 0.00 0.00 0.00 91 1009.2
20260510054533 54 157 0.0 0.0 0.00 0.00 0.00 91 1009.2
20260510054031 55 157 0.0 0.0 0.00 0.00 0.00 91 1009.2
20260510053530 55 157 0.0 0.0 0.00 0.00 0.00 91 1009.1
20260510053040 55 157 0.0 0.0 0.00 0.00 0.00 91 1009.1
20260510052530 55 157 0.0 0.0 0.00 0.00 0.00 91 1009.1
20260510052029 55 157 0.0 0.0 0.00 0.00 0.00 90 1009.1
20260510051529 55 157 0.0 0.0 0.00 0.00 0.00 90 1009.1
20260510051031 55 157 0.0 0.0 0.00 0.00 0.00 90 1009.1
20260510050527 55 157 0.0 0.0 0.00 0.00 0.00 90 1009.2
20260510050027 56 157 0.0 0.0 0.00 0.00 0.00 89 1009.2
20260510045530 56 157 0.0 0.0 0.00 0.00 0.00 89 1009.2
20260510045026 56 157 0.0 0.0 0.00 0.00 0.00 89 1009.2
20260510044542 56 157 0.0 0.0 0.00 0.00 0.00 89 1009.2
20260510044025 56 157 0.0 0.0 0.00 0.00 0.00 89 1009.2
20260510043525 56 157 0.0 0.0 0.00 0.00 0.00 88 1009.2
20260510043024 57 157 0.0 0.0 0.00 0.00 0.00 88 1009.2
20260510042523 57 157 0.0 0.0 0.00 0.00 0.00 88 1009.2
20260510042025 57 157 0.0 0.0 0.00 0.00 0.00 88 1009.1
20260510041522 57 157 0.0 0.0 0.00 0.00 0.00 88 1009.1
20260510041021 57 157 0.0 0.0 0.00 0.00 0.00 87 1009.1
20260510040527 57 157 0.0 0.0 0.00 0.00 0.00 87 1009.0
20260510040034 58 157 0.0 0.0 0.00 0.00 0.00 87 1009.0
20260510035520 58 157 0.0 0.0 0.00 0.00 0.00 87 1009.0
20260510035023 58 157 0.0 0.0 0.00 0.00 0.00 87 1009.0
20260510034519 58 157 0.0 0.0 0.00 0.00 0.00 86 1009.0
20260510034019 58 157 0.0 0.0 0.00 0.00 0.00 86 1009.0
20260510033519 58 157 0.0 0.0 0.00 0.00 0.00 86 1009.0
20260510033023 59 157 0.0 0.0 0.00 0.00 0.00 86 1009.0
20260510032518 59 157 0.0 0.0 0.00 0.00 0.00 85 1009.0
20260510032023 59 157 0.0 0.0 0.00 0.00 0.00 85 1008.9
20260510031519 59 157 0.0 0.0 0.00 0.00 0.00 85 1008.9
20260510031018 59 157 0.0 0.0 0.00 0.00 0.00 84 1008.9
20260510030528 59 157 0.0 0.0 0.00 0.00 0.00 84 1008.9
20260510030018 59 157 0.0 0.0 0.00 0.00 0.00 84 1008.9
20260510025517 60 157 0.0 0.0 0.00 0.00 0.00 84 1008.9
20260510025022 60 157 0.0 0.0 0.00 0.00 0.00 83 1008.8
20260510024517 60 157 0.0 0.0 0.00 0.00 0.00 83 1008.8
20260510024016 60 157 0.0 0.0 0.00 0.00 0.00 83 1008.8
20260510023519 60 157 0.0 0.0 0.00 0.00 0.00 83 1008.9
20260510023016 61 157 0.0 0.0 0.00 0.00 0.00 82 1008.9
20260510022516 61 157 0.0 0.0 0.00 0.00 0.00 81 1008.9
20260510022015 61 157 0.0 0.0 0.00 0.00 0.00 81 1008.8
20260510021515 61 157 0.0 0.0 0.00 0.00 0.00 81 1008.8
20260510021015 61 157 0.0 0.0 0.00 0.00 0.00 80 1008.8
20260510020514 61 157 0.0 0.0 0.00 0.00 0.00 80 1008.7
20260510020021 61 157 0.0 0.0 0.00 0.00 0.00 80 1008.7
20260510015515 62 157 0.0 0.0 0.00 0.00 0.00 80 1008.7
20260510015021 62 157 0.0 0.0 0.00 0.00 0.00 80 1008.5
20260510014514 62 157 0.0 0.0 0.00 0.00 0.00 80 1008.5
20260510014013 62 157 0.0 0.0 0.00 0.00 0.00 79 1008.5
20260510013514 62 157 0.0 0.0 0.00 0.00 0.00 79 1008.3
20260510013013 62 157 0.0 0.0 0.00 0.00 0.00 78 1008.3
20260510012516 63 157 0.0 0.0 0.00 0.00 0.00 77 1008.3
20260510012013 63 157 0.0 0.0 0.00 0.00 0.00 77 1008.1
20260510011517 63 157 0.0 0.0 0.00 0.00 0.00 76 1008.1
20260510011012 63 157 0.0 0.0 0.00 0.00 0.00 76 1008.1
20260510010512 63 157 0.0 0.0 0.00 0.00 0.00 75 1007.9
20260510010012 64 157 0.0 0.0 0.00 0.00 0.00 75 1007.9
20260510005512 64 157 0.0 0.0 0.00 0.00 0.00 74 1007.9
20260510005011 64 157 0.0 0.0 0.00 0.00 0.00 73 1007.8
20260510004513 65 157 0.0 0.0 0.00 0.00 0.00 73 1007.8
20260510004013 65 157 0.0 0.0 0.00 0.00 0.00 72 1007.8
20260510003511 65 157 0.0 0.0 0.00 0.00 0.00 72 1007.7
20260510003011 65 157 0.0 0.0 0.00 0.00 0.00 72 1007.7
20260510002511 65 157 0.0 0.0 0.00 0.00 0.00 71 1007.7
20260510002010 66 157 0.0 0.0 0.00 0.00 0.00 71 1007.6
20260510001510 66 157 0.0 0.0 0.00 0.00 0.00 70 1007.6
20260510001010 66 157 0.0 0.0 0.00 0.00 0.00 70 1007.6
20260510000510 66 157 0.0 0.0 0.00 0.00 0.00 69 1007.5
20260510000016 66 157 0.0 0.0 0.00 0.00 0.00 69 1007.5
20260509235509 67 157 0.0 0.0 0.00 0.00 0.00 69 1007.5
20260509235010 67 157 0.0 0.0 0.00 0.00 0.00 69 1007.4
20260509234512 67 157 0.0 0.0 0.00 0.00 0.00 69 1007.4
20260509234013 68 157 0.0 0.0 0.00 0.00 0.00 68 1007.4
20260509233508 68 157 0.0 0.0 0.00 0.00 0.00 68 1007.1
20260509233010 68 157 0.0 0.0 0.00 0.00 0.00 68 1007.1
20260509232510 68 157 0.0 0.0 0.00 0.00 0.00 68 1007.1
20260509232008 68 157 0.0 0.0 0.00 0.00 0.00 67 1007.2
20260509231508 68 157 0.0 0.0 0.00 0.00 0.00 67 1007.2
20260509231008 69 157 0.0 0.0 0.00 0.00 0.00 66 1007.2
20260509230507 69 157 0.0 0.0 0.00 0.00 0.00 65 1007.1
20260509230016 69 157 0.0 0.0 0.00 0.00 0.00 65 1007.1
20260509225507 69 158 0.0 0.0 0.00 0.00 0.00 65 1007.1
20260509225006 69 92 0.0 0.0 0.00 0.00 0.00 65 1007.2
20260509224506 69 92 0.0 0.0 0.00 0.00 0.00 65 1007.2
20260509224007 69 66 0.0 0.0 0.00 0.00 0.00 65 1007.2
20260509223506 69 66 0.0 0.0 0.00 0.00 0.00 65 1007.2
20260509223009 69 66 0.0 0.0 0.00 0.00 0.00 65 1007.2
20260509222506 69 66 0.0 0.0 0.00 0.00 0.00 66 1007.2
20260509222007 69 66 0.0 0.0 0.00 0.00 0.00 67 1007.2
20260509221506 69 66 0.0 0.0 0.00 0.00 0.00 67 1007.2
20260509221006 69 66 0.0 0.0 0.00 0.00 0.00 66 1007.2
20260509220506 69 66 0.0 0.0 0.00 0.00 0.00 66 1007.1
20260509220005 70 66 0.0 0.0 0.00 0.00 0.00 65 1007.1
20260509215505 70 66 0.0 0.0 0.00 0.00 0.00 65 1007.1
20260509215005 71 66 0.0 0.0 0.00 0.00 0.00 64 1007.1
20260509214504 71 66 0.0 0.0 0.00 0.00 0.00 63 1007.1
20260509214004 72 109 0.0 0.0 0.00 0.00 0.00 63 1007.1
20260509213504 72 112 0.0 0.0 0.00 0.00 0.00 62 1007.1
20260509213004 72 151 0.0 0.0 0.00 0.00 0.00 61 1007.1
20260509212503 72 151 0.0 0.0 0.00 0.00 0.00 61 1007.1
20260509212005 72 112 0.0 0.0 0.00 0.00 0.00 61 1007.1
20260509211504 72 112 0.0 0.0 0.00 0.00 0.00 63 1007.1
20260509211003 72 114 0.0 0.0 0.00 0.00 0.00 62 1007.1
20260509210505 72 114 0.0 0.0 0.00 0.00 0.00 61 1007.1
20260509210006 72 68 0.0 0.0 0.00 0.00 0.00 62 1007.1
20260509205501 72 68 0.0 0.0 0.00 0.00 0.00 63 1007.1
20260509205001 73 68 0.0 0.0 0.00 0.00 0.00 62 1006.9
20260509204501 73 40 0.0 0.0 0.00 0.00 0.00 60 1006.9
20260509204100 73 40 0.0 0.0 0.00 0.00 0.00 58 1006.9
20260509203559 73 40 0.0 0.0 0.00 0.00 0.00 57 1006.9
20260509203116 74 54 0.0 0.0 0.00 0.00 0.00 55 1006.8
20260509202559 74 192 0.0 0.0 0.00 0.00 0.00 56 1006.8
20260509202103 73 192 0.0 0.0 0.00 0.00 0.00 56 1007.1
20260509201604 74 157 0.0 0.0 0.00 0.00 0.00 58 1007.1
20260509201058 73 157 0.0 0.0 0.00 0.00 0.00 57 1007.1
20260509200557 73 157 0.0 0.0 0.00 0.00 0.00 57 1007.5
20260509200108 73 158 0.0 0.0 0.00 0.00 0.00 57 1007.5
20260509195556 73 151 0.0 0.0 0.00 0.00 0.00 59 1007.5
20260509195055 73 152 0.0 0.0 0.00 0.00 0.00 58 1007.7
20260509194554 72 154 0.0 0.0 0.00 0.00 0.00 61 1007.7
20260509194053 72 158 0.0 0.0 0.00 0.00 0.00 60 1007.7
20260509193553 72 278 0.0 0.0 0.00 0.00 0.00 59 1008.1
20260509193111 72 220 0.0 0.0 0.00 0.00 0.00 63 1008.1
20260509192551 71 220 0.0 0.0 0.00 0.00 0.00 62 1008.1
20260509192051 70 176 0.0 0.0 0.00 0.00 0.00 62 1008.0
20260509191550 70 176 0.0 0.0 0.00 0.00 0.00 64 1008.0
20260509191049 69 152 0.0 0.0 0.00 0.00 0.00 65 1008.0
20260509190547 68 24 0.0 0.0 0.00 0.00 0.00 67 1008.3
20260509190047 68 20 0.0 0.0 0.00 0.00 0.00 67 1008.3
20260509185546 68 20 0.0 0.0 0.00 0.00 0.00 66 1008.3
20260509185046 68 20 0.0 0.0 0.00 0.00 0.00 68 1008.6
20260509184559 68 20 0.0 0.0 0.00 0.00 0.00 69 1008.6
20260509184045 68 20 0.0 0.0 0.00 0.00 0.00 70 1008.6
20260509183545 68 18 0.0 0.0 0.00 0.00 0.00 70 1008.6
20260509183045 67 257 0.0 0.0 0.00 0.00 0.00 66 1008.6
20260509182547 67 257 0.0 0.0 0.00 0.00 0.00 63 1008.6
20260509182046 67 257 0.0 0.0 0.00 0.00 0.00 64 1008.9
20260509181546 67 257 0.0 0.0 0.00 0.00 0.00 62 1008.9
20260509181043 67 257 0.0 0.0 0.00 0.00 0.00 62 1008.9
20260509180543 68 257 0.0 0.0 0.00 0.00 0.00 59 1009.1
20260509180041 68 257 0.0 0.0 0.00 0.00 0.00 59 1009.1
20260509175542 68 271 0.0 0.0 0.00 0.00 0.00 59 1009.1
20260509175042 68 260 0.0 0.0 0.00 0.00 0.00 58 1008.9
20260509174542 69 261 0.0 0.0 0.00 0.00 0.00 58 1008.9
20260509174041 69 243 0.0 0.0 0.00 0.00 0.00 58 1008.9
20260509173541 69 152 0.0 0.0 0.00 0.00 0.00 59 1009.2
20260509173047 69 260 0.0 0.0 0.00 0.00 0.00 59 1009.2
20260509172540 68 154 0.0 0.0 0.00 0.00 0.00 60 1009.2
20260509172040 68 320 0.0 0.0 0.00 0.00 0.00 62 1009.2
20260509171545 68 320 0.0 0.0 0.00 0.00 0.00 62 1009.2
20260509171040 67 322 0.0 0.0 0.00 0.00 0.00 61 1009.2
20260509170538 67 322 0.0 0.0 0.00 0.00 0.00 60 1009.3
20260509170038 67 284 0.0 0.0 0.00 0.00 0.00 62 1009.3
20260509165538 67 284 0.0 0.0 0.00 0.00 0.00 62 1009.3
20260509165037 67 284 0.0 0.0 0.00 0.00 0.00 62 1009.3
20260509164538 67 282 0.0 0.0 0.00 0.00 0.00 62 1009.3
20260509164038 67 282 0.0 0.0 0.00 0.00 0.00 60 1009.3
20260509163538 67 25 0.0 0.0 0.00 0.00 0.00 61 1009.3
20260509163038 67 42 0.0 0.0 0.00 0.00 0.00 60 1009.3
20260509162538 67 339 0.0 0.0 0.00 0.00 0.00 59 1009.3
20260509162040 68 339 0.0 0.0 0.00 0.00 0.00 61 1009.4
20260509161537 68 339 0.0 0.0 0.00 0.00 0.00 61 1009.4
20260509161036 67 59 0.0 0.0 0.00 0.00 0.00 61 1009.4
20260509160535 67 103 0.0 0.0 0.00 0.00 0.00 62 1009.5
20260509160034 67 103 0.0 0.0 0.00 0.00 0.00 63 1009.5
20260509155533 66 103 0.0 0.0 0.00 0.00 0.00 62 1009.5
20260509155033 66 336 0.0 0.0 0.00 0.00 0.00 63 1009.7
20260509154535 66 336 0.0 0.0 0.00 0.00 0.00 62 1009.7
20260509154031 66 90 0.0 0.0 0.00 0.00 0.00 63 1009.7
20260509153531 66 320 0.0 0.0 0.00 0.00 0.00 61 1009.8
20260509153031 65 287 0.0 0.0 0.00 0.00 0.00 64 1009.8
20260509152529 65 258 0.0 0.0 0.00 0.00 0.00 64 1009.8
20260509152031 65 251 0.0 0.0 0.00 0.00 0.00 64 1009.9
20260509151527 64 219 0.0 0.0 0.00 0.00 0.00 64 1009.9
20260509151026 64 222 0.0 0.0 0.00 0.00 0.00 65 1009.9
20260509150525 63 223 0.0 0.0 0.00 0.00 0.00 64 1010.3
20260509150024 63 223 0.0 0.0 0.00 0.00 0.00 64 1010.3
20260509145524 63 223 0.0 0.0 0.00 0.00 0.00 64 1010.3
20260509145023 63 141 0.0 0.0 0.00 0.00 0.00 67 1010.5
20260509144521 63 136 0.0 0.0 0.00 0.00 0.00 66 1010.5
20260509144020 62 136 0.0 0.0 0.00 0.00 0.00 66 1010.5
20260509143524 62 136 0.0 0.0 0.00 0.00 0.00 66 1010.5
20260509143023 62 136 0.0 0.0 0.00 0.00 0.00 68 1010.5